Tracking 31027 objects as of 19-Jul-2025
HD Live streaming from Space Station
objects crossing your sky now

FREGAT DEB

Track FREGAT DEB now!
10-day predictions


NORAD ID: 45979
Int'l Code: 2011-037GL
Perigee: 708.0 km
Apogee: 4,024.5 km
Inclination: 51.5 °
Period: 135.5 minutes
Semi major axis: 8737 km
RCS: Unknown
Launch date: July 18, 2011
Source: Commonwealth of Independent States (former USSR) (CIS)
Launch site: TYURATAM MISSILE AND SPACE COMPLEX (TTMTR)

Note: This is SATELLITE DEBRIS
Your satellite tracking list
SL-12 R/B(AUX MOTOR)
Track 1 satellite(s)




NASA's NSSDC Master Catalog

Two Line Element Set (TLE):
1 45979U 11037GL  25199.47431922  .00000169  00000-0  39634-3 0  9998
2 45979  51.5166 216.0192 1897915 251.2793  87.3478 10.63015507193457
Source of the keplerian elements: AFSPC